Weather in Pobeda

Russia / Saint-Petersburg and Leningrad Oblast     60°21′14″N   29°26′21″E
temp.,
°C
wind,
m/s
gust,
m/s
humid.,
%
clouds,
%
prec.,
mm/h
press.,
hPa
HPBL,
m
24 september, fri
fri2400:00+7se7148589 0.0 10001042
03:00+7se7138499 0.1 9981100
06:00+7se81383100 0.1 9961133
09:00+7se61078100 0.2 997947
12:00+8se697098 0.0 998956
15:00+10se5767100 0.1 9991117
18:00+9sse3775100 0.1 1000713
21:00+8sse588189 0.1 1000670
25 september, sat
sat2500:00+8sse4786100 0.1 1001655
03:00+8sse5890100 0.4 1000658
06:00+8sse5892100 0.5 999697
09:00+8sse5895100 3.4 998593
12:00+8ssw3595100 1.1 998497
15:00+10sw259399 1.7 999343
18:00+9wnw3889100 0.6 1001422
21:00+9nw4108981 0.8 1003548
26 september, sun
sun2600:00+9wnw41090100 0.1 1005449
03:00+8nw41091100 0.3 1007440
06:00+8nw41292100 0.2 1009542
09:00+9nnw5109064 0.2 1012712
12:00+11nnw577758 0.3 1015976
15:00+11nnw587363 0.4 1018926
18:00+10nnw587515 0.0 1020720
21:00+8n410815 0.0 1022381
27 september, mon
mon2700:00+6n399017 0.0 1024219
03:00+5n379613 0.0 1026160
06:00+5nne369724 0.0 1027146
09:00+8nne259010 0.0 1028199
12:00+13ene247144 0.0 1029776
15:00+13ene236385 0.1 1029992
18:00+12ene35756 0.1 1030161
21:00+7ene23915 0.1 103171
28 september, tue
tue2800:00+7ene22925 0.0 103239
03:00+7ne22945 0.0 103339
06:00+6ene22945 0.0 103361
09:00+8e25865 0.0 1034187
12:00+12ese346727 0.0 1034672
15:00+12se336752 0.0 1034682
18:00+10sse228010 0.0 103439
21:00+8ese22925 0.0 103542